Temperature
15 15 15 15 15 15 15 15 15 15 15 14 14 14 14 14 14 14 14 14 14 14 14 14 14 14 14 14 14 14 14 14 14 14 14 14 13 13 13 13 13 13 13
15 15 15 15 15 15 15 14 14 14 14 14 14 14 14 14 14 14 14 14 14 14 14 14 13 13 13 13 13 13 14 14 14 14 14 13 13 13 13 13 13 13 13
15 15 15 15 15 15 14 14 14 14 14 14 14 14 14 14 14 14 14 14 13 13 13 13 13 13 13 13 13 13 13 13 13 13 13 13 13 13 13 13 13 13 13
15 15 14 14 14 14 14 14 14 14 14 14 14 14 14 14 13 13 13 13 13 13 13 13 13 13 13 13 13 13 13 13 13 13 13 13 13 13 13 13 13 12 12
14 14 14 14 14 14 14 14 14 14 14 14 14 14 13 13 13 13 13 13 13 13 13 13 13 13 13 13 13 13 13 13 13 13 13 13 13 12 12 12 13 12 12
14 14 14 14 14 14 14 13 13 13 13 13 13 13 13 14 14 14 13 13 13 13 13 13 13 13 13 13 13 13 13 13 13 13 13 12 12 12 12 12 12 12 12
14 14 14 14 13 13 13 13 13 13 13 13 13 13 13 13 13 13 13 13 13 13 12 12 13 13 13 13 13 13 13 13 12 12 12 12 12 12 12 12 12 12 12
14 13 14 13 13 13 13 13 13 13 13 13 13 13 13 13 13 13 13 13 12 12 12 12 12 12 12 12 12 12 12 12 12 12 12 12 11 11 11 11 11 11 11
13 13 13 13 13 13 13 13 13 12 12 13 13 13 12 12 13 13 13 12 12 12 12 12 12 12 12 12 12 12 12 12 12 12 12 12 11 11 11 11 11 11 12
13 13 13 13 13 12 12 12 12 12 12 12 12 12 12 12 12 12 12 12 12 12 12 12 12 12 12 12 12 11 11 11 11 11 11 11 11 11 11 11 11 11 12
13 13 13 12 12 12 12 12 12 12 12 12 12 12 12 12 12 12 12 12 12 12 12 12 12 12 12 12 11 11 11 11 11 11 11 11 11 11 11 11 11 11 11
13 13 12 12 12 12 12 12 12 12 12 12 12 12 12 12 12 12 12 12 12 11 11 12 11 11 11 11 11 11 11 11 11 11 11 11 11 11 11 10 10 10 10
12 12 12 12 12 12 12 12 11 11 12 12 12 12 12 12 11 12 12 11 11 11 11 11 11 11 11 11 11 11 11 11 11 11 11 11 11 10 10 10 10 10 10
12 12 12 12 12 12 12 12 12 12 12 12 12 12 12 11 11 11 11 11 11 11 11 11 11 11 11 11 11 11 11 10 10 10 10 10 10 10 10 10 10 10 10
11 11 11 11 12 11 11 11 11 11 11 11 11 11 11 11 11 11 11 11 11 10 11 11 11 11 11 11 10 10 10 10 10 10 10 10 10 10 10 10 10 10 10
11 11 11 12 11 12 12 11 11 11 11 11 11 11 11 11 11 11 10 10 10 10 10 10 11 11 11 11 11 10 10 10 10 10 10 10 10 10 10 10 10 10 10
11 11 11 12 12 12 12 12 11 11 11 11 11 11 10 10 10 10 10 10 10 10 10 10 11 11 10 10 10 10 10 10 10 10 10 10 10 10 10 10 10 9 9
11 11 11 11 12 12 12 12 12 11 11 11 11 11 10 10 10 10 10 10 10 10 10 10 10 10 10 10 10 10 10 10 10 10 10 9 10 10 10 9 9 9 9
11 11 11 11 11 11 11 12 11 11 11 11 11 11 10 10 10 10 10 10 10 10 10 10 10 10 10 10 10 10 10 10 9 9 9 9 9 9 9 9 9 9 9
11 11 11 11 11 11 11 11 11 11 11 11 11 11 10 10 10 10 10 10 10 10 10 10 10 10 10 10 10 10 10 9 9 9 9 9 9 9 9 9 9 9 9
11 11 11 11 11 11 11 11 11 11 11 11 11 11 10 10 10 10 10 10 10 10 10 10 10 10 10 10 10 9 9 9 9 9 9 9 9 9 9 9 9 8 8
11 11 11 11 11 11 11 11 11 11 11 11 11 11 10 10 10 10 10 10 10 10 10 10 10 10 9 9 9 9 9 9 9 9 9 9 9 8 8 8 8 8 8
10 11 11 11 10 10 10 10 11 11 11 11 11 10 10 10 10 10 10 10 10 10 9 9 9 9 9 9 9 9 9 9 9 9 9 8 8 8 8 8 8 8 8
11 11 11 10 10 10 10 10 10 10 10 10 10 10 10 10 10 10 10 10 9 9 9 9 9 9 9 8 8 8 8 8 8 8 8 8 8 8 8 7 7 7 7
10 10 10 10 10 10 10 10 10 10 10 10 10 10 10 10 9 10 10 9 9 9 9 9 9 8 8 8 8 8 8 8 8 8 8 7 7 7 7 7 7 7 7
10 10 10 10 10 10 10 10 10 10 10 10 10 9 9 9 9 9 9 9 9 9 9 8 8 8 8 8 8 8 8 8 8 8 7 7 7 7 7 7 7 7 7
Wind_Speed
5 5 5 4 4 4 3 3 3 3 3 4 4 4 4 4 4 4 3 3 3 3 3 3 3 3 2 2 2 2 3 3 3 2 1 0 1 1 0 1 2 2 2
6 6 5 5 4 4 3 3 3 3 3 3 4 4 4 4 3 4 3 3 3 3 3 3 3 3 3 2 2 3 2 3 3 3 2 1 1 2 1 2 2 2 1
5 6 5 5 5 4 4 3 3 3 3 3 4 4 3 3 3 3 3 2 2 2 2 2 2 3 3 2 3 2 2 3 3 3 3 2 2 1 2 2 2 2 3
5 6 5 5 4 4 4 3 3 3 3 3 4 3 3 3 3 3 3 3 2 2 1 1 2 2 2 2 3 3 2 3 3 3 3 2 1 1 2 2 2 2 3
5 5 5 4 4 3 3 3 3 3 3 3 3 3 3 3 2 2 3 3 2 2 2 1 1 1 2 1 2 1 2 3 3 3 3 3 2 2 2 3 3 3 2
5 5 5 4 4 4 3 3 3 3 3 3 3 3 3 2 4 3 1 2 2 1 1 1 2 2 3 2 1 2 2 2 3 3 3 3 3 3 3 4 3 3 3
5 5 5 4 4 4 3 4 3 3 3 3 3 3 3 3 4 2 1 0 1 1 1 1 1 1 1 1 2 3 2 1 2 3 3 3 4 4 4 5 4 4 4
5 4 4 4 4 4 3 3 3 2 2 2 2 3 3 3 4 2 1 2 1 1 1 1 1 1 0 1 1 1 1 2 3 3 3 3 3 3 4 5 5 5 5
5 4 4 4 4 4 3 3 3 2 2 2 2 2 2 2 4 3 3 3 2 2 2 2 2 2 2 1 2 2 2 2 3 2 1 2 2 3 4 4 4 5 5
5 4 4 4 4 3 3 3 2 2 2 2 2 2 2 2 4 3 4 3 3 3 2 3 2 1 2 1 4 3 3 2 2 2 4 5 5 5 6 5 5 6 5
4 5 4 4 3 3 3 3 2 2 2 1 1 1 1 1 4 4 3 3 3 3 2 2 2 4 2 2 4 4 3 3 4 4 4 4 4 4 4 4 4 5 5
4 4 4 4 3 3 3 3 3 2 3 2 2 2 2 2 1 4 5 5 5 3 3 2 2 4 3 3 4 3 4 6 5 4 4 4 3 3 3 4 4 5 5
3 3 4 4 3 3 4 4 4 3 3 2 2 2 2 2 2 5 6 6 5 4 3 1 1 4 5 5 6 6 6 5 4 4 4 4 3 3 3 4 5 6 7
4 3 3 4 4 3 3 3 3 2 2 2 2 2 2 1 1 1 2 4 5 5 4 3 6 7 6 4 4 5 5 4 4 5 4 4 4 4 4 4 4 5 5
4 3 3 4 3 3 2 1 2 1 1 2 2 2 2 2 1 3 2 2 2 2 3 3 3 4 4 4 4 4 4 4 5 4 4 4 4 4 4 4 4 5 5
3 3 3 3 3 3 2 2 3 1 2 0 2 4 2 1 1 0 1 2 3 3 4 4 4 4 4 3 3 4 4 4 4 5 5 5 5 4 4 4 4 5 5
4 3 2 2 3 3 2 2 2 2 3 3 3 2 2 2 1 2 3 3 4 5 4 4 4 4 4 4 4 4 4 4 4 5 5 5 5 5 4 4 4 5 5
4 3 3 3 2 3 3 2 2 2 2 2 3 5 5 5 5 5 5 4 3 5 5 4 4 4 4 4 4 4 4 4 4 5 5 5 5 5 5 5 5 5 5
3 2 2 2 3 3 2 2 2 2 2 2 2 3 5 5 6 6 6 4 4 4 5 5 4 4 4 4 4 4 5 5 5 5 5 5 5 5 5 6 6 5 7
3 2 2 2 3 2 3 2 2 2 3 3 3 2 2 3 3 3 4 4 5 5 5 5 4 4 4 4 4 4 5 5 5 5 5 5 5 5 6 7 7 6 6
3 4 5 4 3 3 3 3 3 3 3 3 3 2 2 4 4 4 4 4 4 4 4 5 5 4 4 4 4 4 5 5 5 5 5 5 5 5 6 7 7 6 6
4 4 4 4 3 3 3 3 4 3 4 4 3 3 6 5 4 4 4 3 3 3 4 4 4 4 4 4 4 5 5 5 5 5 6 6 6 6 6 7 6 6 6
4 4 3 3 3 3 4 4 3 3 4 4 4 3 3 4 4 4 4 3 2 3 3 3 3 3 4 4 4 5 5 5 5 5 6 6 6 6 6 7 7 7 7
4 4 3 3 3 4 4 4 3 4 4 4 3 3 3 3 4 3 3 2 2 2 2 3 3 3 4 5 5 4 3 4 6 5 6 6 7 7 6 6 7 7 7
3 3 3 4 4 4 4 4 4 3 3 3 3 3 3 2 2 2 2 2 2 2 2 2 2 2 3 4 4 3 4 4 4 6 7 7 7 7 7 7 6 6 6
3 3 3 3 3 3 4 3 3 3 3 3 3 3 3 2 2 2 2 2 2 2 2 2 2 2 3 3 4 4 3 3 3 5 7 7 7 6 7 6 7 7 7
Wind_Direction
142 139 134 139 144 146 142 138 135 138 145 152 155 154 154 156 161 163 170 167 176 182 187 183 194 215 220 233 242 245 250 254 256 281 285 168 198 288 348 303 278 253 179
140 139 137 138 141 142 133 127 130 132 134 140 148 149 150 152 157 163 168 171 183 191 191 194 200 198 203 227 231 239 244 248 250 258 271 263 253 252 248 261 266 268 269
139 139 137 137 135 133 128 131 133 130 129 133 136 136 135 138 152 167 172 179 186 190 198 206 207 206 212 218 226 231 235 236 236 244 255 264 262 258 251 252 261 269 265
141 140 138 138 138 139 137 137 138 134 133 134 137 137 137 139 149 156 154 156 161 165 174 188 207 221 221 223 228 229 228 236 231 241 252 251 256 261 263 266 255 239 259
146 142 140 141 138 139 139 137 140 142 140 137 136 135 136 136 121 128 151 150 156 165 167 175 152 73 34 336 286 252 234 237 234 230 237 246 251 260 264 267 269 268 240
150 146 141 143 142 138 136 133 136 135 134 134 132 127 122 107 77 51 2 140 152 164 164 171 166 155 140 145 62 19 319 256 249 247 246 260 269 267 267 271 273 269 263
148 146 144 148 145 148 150 138 134 140 141 136 137 136 125 105 103 100 356 186 164 168 175 196 218 123 157 190 163 181 209 249 269 263 263 270 274 277 279 271 269 274 282
149 148 149 149 150 152 153 145 138 136 139 143 149 150 154 136 127 143 244 203 198 191 193 188 206 217 124 324 240 215 233 209 224 239 262 271 279 289 274 271 272 259 257
150 150 148 151 153 157 154 147 146 146 152 163 167 170 176 164 145 168 243 207 194 212 213 198 210 209 91 311 240 236 244 231 186 187 257 277 308 295 282 271 264 260 265
153 151 147 147 151 155 148 150 152 167 176 176 165 177 188 190 156 178 235 227 208 211 202 194 162 190 126 249 241 243 246 253 266 224 219 227 233 225 227 253 270 271 274
149 146 145 146 152 152 150 154 167 183 178 187 189 189 198 200 167 179 221 240 238 234 221 211 167 147 166 233 256 254 268 275 258 256 247 236 227 223 227 237 263 276 281
146 149 147 149 160 153 158 170 182 195 192 195 206 223 206 193 191 171 191 231 272 250 255 251 161 150 192 234 243 254 260 260 256 255 254 247 246 248 251 253 254 264 275
151 155 157 158 161 166 175 179 190 202 220 217 220 227 223 199 166 167 186 209 234 245 262 322 210 197 214 224 220 235 240 245 252 255 257 260 261 263 260 249 245 244 249
160 164 166 170 171 170 194 198 206 209 228 245 254 262 257 237 236 199 202 204 209 228 251 210 204 215 224 235 219 221 234 245 252 255 262 264 261 257 253 260 261 256 257
166 177 187 187 173 174 187 210 224 213 286 280 277 269 269 263 15 12 308 260 250 238 242 238 227 219 218 220 223 228 234 234 239 248 257 262 264 265 262 258 267 272 269
175 186 196 197 184 198 189 169 85 74 94 60 316 305 312 39 79 351 295 288 271 248 237 235 234 234 237 237 240 236 233 237 244 249 257 264 268 269 268 268 267 272 274
176 185 206 202 196 209 212 214 199 172 178 200 219 246 258 264 236 222 231 244 238 224 231 239 241 242 245 246 249 252 249 246 256 258 259 262 265 267 266 266 267 270 272
181 175 205 207 215 218 217 225 233 236 224 216 196 193 203 214 222 226 222 219 224 217 240 246 248 251 254 255 258 257 256 249 246 253 255 258 262 264 264 265 265 272 275
191 187 204 224 223 224 228 233 238 237 246 245 233 178 190 203 208 216 211 234 248 243 242 245 250 255 260 260 261 260 256 254 253 252 253 255 258 262 266 271 271 263 269
197 180 213 232 231 230 231 235 241 237 237 238 236 234 194 210 229 218 217 243 256 257 251 248 249 255 256 259 260 260 258 255 252 250 254 256 257 261 264 267 274 274 270
202 182 197 227 232 236 237 236 241 248 249 248 247 222 208 246 252 253 255 253 257 261 260 256 251 246 248 252 253 253 257 258 254 254 258 260 260 262 266 266 266 270 274
217 206 206 219 226 232 239 241 246 249 247 246 252 213 184 237 262 268 267 268 265 266 268 262 258 255 252 254 255 253 253 254 256 258 262 265 265 267 266 268 272 273 272
222 218 213 216 227 219 232 241 244 249 249 246 248 254 239 247 258 264 268 274 281 280 278 271 268 268 264 258 259 260 260 262 264 267 266 266 268 269 270 269 267 269 270
219 217 218 220 230 231 234 242 248 255 256 250 248 254 260 259 264 274 282 289 289 286 283 282 280 282 284 276 270 271 286 295 287 274 269 271 273 273 271 271 270 269 268
228 224 229 234 238 237 240 246 249 250 254 257 261 262 266 272 273 278 280 282 286 292 297 294 296 299 304 302 301 317 2 356 320 297 279 271 271 274 275 273 270 270 270
233 235 242 243 243 245 246 247 246 243 244 250 257 265 269 269 272 275 279 286 291 294 299 306 319 323 329 331 351 0 9 350 320 299 282 273 271 271 275 275 276 271 270
Height
1501 1503 1504 1505 1506 1507 1508 1509 1509 1510 1510 1512 1513 1514 1515 1516 1517 1518 1520 1520 1521 1522 1523 1524 1524 1525 1527 1527 1528 1529 1530 1531 1531 1531 1531 1531 1530 1530 1530 1529 1530 1529 1529
1501 1502 1504 1505 1506 1507 1508 1509 1509 1510 1510 1511 1512 1513 1514 1515 1516 1518 1519 1520 1521 1521 1522 1523 1524 1525 1525 1525 1526 1527 1528 1528 1529 1529 1529 1529 1528 1528 1527 1527 1528 1528 1527
1501 1502 1504 1505 1506 1507 1508 1509 1509 1510 1510 1511 1512 1513 1514 1515 1516 1517 1518 1519 1520 1520 1521 1522 1523 1523 1524 1524 1525 1525 1526 1526 1527 1527 1527 1527 1527 1526 1526 1526 1526 1525 1525
1501 1502 1503 1504 1506 1507 1507 1508 1509 1510 1511 1511 1512 1513 1514 1515 1516 1517 1518 1518 1519 1519 1520 1520 1521 1522 1522 1523 1523 1523 1523 1524 1525 1525 1525 1525 1525 1525 1524 1524 1524 1523 1523
1501 1502 1503 1504 1505 1506 1507 1508 1509 1510 1511 1511 1512 1513 1514 1515 1515 1516 1517 1517 1517 1518 1519 1519 1520 1520 1520 1521 1522 1522 1522 1522 1523 1523 1523 1523 1523 1523 1523 1522 1522 1522 1521
1500 1502 1503 1504 1505 1506 1507 1508 1508 1509 1510 1511 1512 1513 1513 1514 1514 1515 1515 1516 1516 1517 1517 1518 1518 1518 1519 1519 1519 1519 1520 1520 1521 1521 1521 1521 1521 1521 1521 1521 1520 1520 1519
1499 1501 1502 1503 1504 1506 1507 1507 1508 1509 1510 1510 1511 1512 1512 1512 1513 1514 1514 1515 1515 1515 1515 1516 1518 1518 1517 1518 1518 1518 1518 1518 1519 1519 1519 1519 1519 1519 1518 1518 1517 1517 1517
1498 1500 1501 1502 1504 1505 1506 1507 1507 1508 1509 1509 1510 1511 1511 1511 1512 1512 1513 1514 1514 1514 1514 1515 1515 1516 1516 1516 1517 1517 1517 1517 1516 1517 1517 1517 1516 1516 1515 1516 1515 1514 1514
1498 1499 1501 1502 1503 1504 1505 1506 1506 1507 1508 1508 1509 1509 1510 1510 1510 1511 1511 1512 1512 1513 1513 1513 1514 1514 1514 1514 1515 1515 1515 1515 1515 1514 1514 1514 1513 1513 1513 1513 1513 1513 1512
1497 1498 1500 1501 1502 1503 1504 1504 1505 1506 1507 1508 1508 1508 1508 1508 1509 1509 1510 1510 1511 1511 1511 1511 1511 1512 1512 1513 1513 1513 1513 1514 1514 1513 1512 1511 1511 1510 1510 1510 1510 1511 1510
1496 1497 1498 1500 1501 1502 1503 1503 1504 1505 1506 1506 1506 1506 1507 1507 1507 1507 1508 1508 1509 1510 1510 1510 1510 1510 1510 1511 1511 1511 1511 1511 1511 1511 1511 1510 1509 1508 1508 1508 1507 1507 1507
1495 1496 1497 1498 1500 1501 1502 1502 1503 1504 1504 1505 1505 1505 1505 1505 1505 1505 1505 1506 1506 1507 1508 1509 1508 1507 1508 1508 1509 1509 1509 1509 1510 1509 1509 1508 1508 1507 1506 1505 1504 1504 1503
1493 1495 1496 1497 1499 1500 1501 1501 1502 1502 1503 1503 1504 1504 1504 1503 1503 1503 1503 1503 1504 1504 1505 1505 1505 1505 1505 1506 1506 1506 1506 1507 1507 1507 1507 1506 1506 1505 1504 1503 1502 1501 1500
1492 1493 1495 1496 1497 1498 1499 1500 1501 1501 1501 1502 1502 1502 1502 1502 1502 1501 1501 1501 1502 1502 1503 1503 1503 1503 1503 1503 1503 1503 1504 1504 1504 1504 1504 1504 1503 1502 1501 1501 1500 1499 1498
1490 1492 1493 1495 1496 1496 1497 1498 1499 1499 1499 1500 1500 1500 1500 1500 1499 1499 1499 1499 1499 1500 1500 1501 1501 1501 1501 1501 1501 1501 1501 1501 1501 1501 1501 1501 1501 1500 1499 1498 1497 1496 1495
1489 1490 1492 1493 1494 1495 1496 1496 1496 1497 1497 1497 1497 1498 1498 1498 1497 1496 1496 1497 1497 1497 1498 1498 1498 1498 1499 1499 1499 1499 1499 1499 1499 1499 1499 1498 1498 1497 1496 1495 1494 1493 1492
1487 1489 1490 1492 1492 1493 1494 1494 1494 1495 1495 1495 1495 1495 1495 1495 1495 1495 1494 1494 1494 1495 1495 1496 1496 1496 1496 1496 1496 1496 1496 1496 1496 1496 1496 1495 1495 1494 1493 1492 1491 1490 1489
1486 1487 1489 1490 1491 1491 1492 1492 1493 1493 1493 1493 1493 1493 1493 1493 1493 1493 1493 1492 1492 1492 1493 1493 1493 1493 1493 1493 1493 1493 1493 1493 1492 1492 1492 1492 1491 1491 1490 1489 1488 1487 1486
1485 1486 1487 1488 1489 1490 1490 1491 1491 1492 1492 1492 1492 1492 1491 1491 1491 1491 1491 1491 1491 1490 1490 1490 1490 1490 1490 1490 1490 1490 1490 1490 1489 1489 1488 1488 1487 1487 1486 1486 1485 1484 1483
1483 1484 1485 1486 1487 1488 1488 1489 1490 1490 1490 1490 1490 1490 1489 1489 1489 1489 1488 1488 1488 1487 1487 1487 1487 1487 1487 1487 1487 1486 1486 1486 1486 1485 1485 1484 1484 1483 1482 1482 1481 1480 1479
1481 1482 1482 1484 1485 1486 1486 1487 1487 1488 1488 1488 1488 1488 1487 1487 1487 1486 1486 1485 1485 1484 1484 1483 1483 1483 1483 1483 1483 1483 1483 1482 1482 1482 1481 1481 1480 1479 1479 1478 1477 1476 1475
1479 1480 1481 1482 1483 1483 1484 1484 1484 1485 1485 1485 1485 1485 1484 1484 1484 1484 1483 1482 1481 1481 1480 1480 1479 1479 1479 1479 1479 1479 1479 1479 1478 1478 1478 1477 1477 1476 1475 1474 1473 1472 1471
1477 1478 1479 1479 1480 1481 1481 1481 1482 1482 1482 1482 1483 1482 1482 1481 1481 1481 1480 1479 1479 1478 1477 1476 1476 1476 1476 1476 1476 1476 1475 1475 1475 1474 1474 1473 1472 1472 1471 1470 1469 1468 1467
1475 1475 1476 1477 1477 1478 1478 1479 1479 1479 1479 1479 1480 1480 1479 1479 1478 1478 1477 1477 1476 1475 1474 1473 1473 1473 1472 1472 1472 1472 1471 1470 1470 1470 1469 1469 1468 1467 1467 1466 1464 1463 1463
1472 1473 1474 1474 1475 1475 1476 1476 1476 1476 1476 1476 1476 1476 1476 1476 1475 1475 1474 1473 1473 1472 1471 1470 1470 1469 1469 1468 1468 1468 1467 1466 1466 1465 1465 1464 1464 1463 1463 1462 1461 1459 1458
1470 1471 1472 1472 1472 1472 1473 1473 1473 1473 1473 1473 1473 1473 1473 1472 1472 1471 1471 1470 1470 1469 1468 1468 1467 1466 1465 1464 1463 1463 1462 1462 1461 1460 1460 1460 1460 1459 1458 1457 1456 1455 1454